Terminal Aerodrome Forecast
Issued by NWS Tampa Bay Area, FL

Home | Current Version | Previous Version | Text Only | Print | Product List | Glossary On
Versions: 1 2 3 4 5 6 7 8 9 10 11 12 13 14 15 16 17 18 19 20 21 22 23 24 25 26 27 28 29 30
783
FTUS42 KTBW 061457 AAC
TAFTPA
TAF AMD
KTPA 061457Z 0615/0712 02009KT P6SM VCSH SCT035 BKN050
     FM061900 35007KT P6SM VCSH SCT010 OVC020
     FM070000 34011KT P6SM VCSH SCT005 OVC010
     FM070100 34011KT P6SM SCT010 OVC100
     FM071000 34011G16KT P6SM FEW060 SCT250=

USA.gov is the U.S. government's official web portal to all federal, state and local government web resources and services.